[[{"header":{"parameterUnit":"m.s-1","parameterCategory":1,"la1":30.2991,"la2":30.254,"lo1":-89.0895,"lo2":-89.0444,"dy":0.0017,"dx":0.0017,"nx":28,"ny":28,"refTime":"2025-11-22T09:00:00:Z","depth":0,"parameterNumber":2,"parameterNumberName":"U-component_of_WINDS"},"data":[0,0,0,0,0,0,0,0,0,0,0,0,0,0,0,0,0,0,0,0,0,0,0,0,0,0,0,0,0,0,0,0,0,0,0,0,0,0,0,0,0,0,0,0,0,0,0,0,0,0,0,0,0,0,0,0,0,0,0.0101,0.0102,0,0.0199,0.02,0.0201,0.0265,0.0266,0.0266,0.0266,0.0369,0.0371,0.0373,0,0,0,0,0,0,0,0,0,0,0,0,0,-0.0027,-0.0025,0.0101,0.0102,0.0103,0.0199,0.02,0.0201,0.0265,0.0266,0.0266,0.0267,0.0368,0.0371,0.0373,0,0,0,0,0,0,0,0,0,0,0,0,0,0.0045,-0.0025,0.0101,0.0147,0.0152,0.0198,0.02,0.0202,0.0265,0.0266,0.0266,0.0267,0.0367,0.037,0.0374,0.0383,0,0,0.0384,0.0386,0,0,0,0,0,0,0,0,0.0041,0.005,0.0139,0.0144,0.0149,0.022,0.0192,0.0263,0.0265,0.0222,0.0266,0.0267,0.0319,0.0326,0.0343,0.0388,0.0392,0.0385,0.0387,0.0388,0.0389,0,0,0,0,0,0,0,0.0036,0.0046,0.014,0.014,0.0146,0.0164,0.0175,0.0206,0.0266,0.0226,0.0231,0.0241,0.0322,0.034,0.0346,0.0394,0.0385,0.0388,0.039,0.0391,0.0454,0.0454,0,0,0,0,0,0,0.0023,0.0042,0.0137,0.0143,0.0096,0.0165,0.0178,0.0197,0.0266,0.0277,0.0241,0.0244,0.0334,0.0342,0.035,0.0367,0.0388,0.0392,0.0394,0.0455,0.0454,0.0454,0,0,0,0,0,0,0.002,0.0031,0.0133,0.0094,0.0108,0.0167,0.0188,0.0199,0.0217,0.0277,0.0288,0.0248,0.0334,0.0345,0.0375,0.0372,0.0393,0.0396,0.0455,0.0454,0.0454,0.04,0,0,0,0,0,0,0.0016,0.003,0.0033,0.0093,0.011,0.0154,0.0188,0.02,0.0222,0.0227,0.0287,0.0297,0.0336,0.0369,0.0378,0.0377,0.0399,0.0456,0.0455,0.0454,0.0403,0.0398,0.0394,0,0,0,0,0,0.0012,0.0014,0.0033,0.0044,0.0114,0.0154,0.0164,0.0208,0.0222,0.0226,0.0265,0.0295,0.0371,0.0372,0.0383,0.0382,0.0456,0.0455,0.0454,0.0405,0.0399,0.0394,0,0,0,0,0,0,-0.0049,0.0022,0.0044,0.0065,0.0103,0.0165,0.0171,0.02,0.0235,0.0238,0.0292,0.0305,0.033,0.0359,0.0359,0.0397,0.0417,0.0418,0.0376,0.0371,0.0367,0.0359,0.0402,0,0,0,0,0,-0.0059,-0.0034,0.0027,0.004,0.0058,0.0111,0.013,0.0161,0.0203,0.0219,0.026,0.03,0.0334,0.0354,0.0388,0.0408,0.0423,0.0413,0.0409,0.0405,0.0405,0.042,0.0417,0.045,0.045,0.045,0,0,-0.0081,-0.0039,-0.0027,0.0029,0.0062,0.0088,0.0124,0.015,0.0171,0.0223,0.0254,0.0286,0.0334,0.036,0.0373,0.0385,0.04,0.0404,0.04,0.0403,0.0419,0.0416,0.0413,0.045,0.045,0.045,0,0,-0.0108,-0.0075,-0.0059,-0.0026,0.0023,0.0059,0.0063,0.0121,0.0144,0.0176,0.0216,0.0243,0.0298,0.0331,0.0355,0.0345,0.0374,0.0354,0.0331,0.0345,0.0343,0.0341,0.0338,0.0337,0.0354,0.0354,0.0354,0,-0.0142,-0.0102,-0.0055,-0.0031,-0.0006,0.0043,0.006,0.009,0.0148,0.0164,0.0177,0.0249,0.0285,0.032,0.0318,0.0335,0.0343,0.0347,0.0339,0.0338,0.0337,0.0335,0.0334,0.0352,0.0352,0.0352,0.0352,0,-0.0145,-0.0117,-0.011,-0.0055,-0.003,-0.001,0.0042,0.0062,0.0092,0.0127,0.016,0.0206,0.025,0.0261,0.029,0.0301,0.0307,0.0329,0.0351,0.033,0.0329,0.0329,0.0348,0.0349,0.0349,0.035,0,0,-0.0208,-0.0126,-0.0124,-0.0098,-0.0038,-0.0015,0.0009,0.0052,0.0069,0.0108,0.0131,0.0178,0.0199,0.0227,0.026,0.0273,0.0263,0.0293,0.0295,0.0287,0.0281,0.0264,0.0263,0.0284,0.0284,0.0284,0.0277,0,-0.0226,-0.0182,-0.0137,-0.0109,-0.0081,-0.0033,-0.0011,0.0028,0.0062,0.0092,0.013,0.0163,0.0188,0.0205,0.022,0.0261,0.0263,0.0262,0.0306,0.0307,0.0292,0.0262,0.0244,0.0236,0.0277,0.0277,0.0277,0,-0.0241,-0.0204,-0.0172,-0.0113,-0.01,-0.0082,-0.0037,-0.001,0.0037,0.0061,0.0093,0.0129,0.0159,0.0178,0.0221,0.022,0.0241,0.0264,0.0265,0.0271,0.0291,0.0268,0.0234,0.0233,0.0277,0.0277,0.0277,0,-0.0289,-0.0231,-0.0204,-0.0183,-0.0114,-0.0102,-0.0072,-0.0025,-0.0,0.004,0.0056,0.0099,0.0123,0.0156,0.0203,0.0213,0.0242,0.0265,0.0264,0.0263,0.0268,0.0267,0.0237,0.0281,0.0281,0.0281,0.0281,0,-0.0313,-0.0296,-0.0225,-0.0209,-0.0186,-0.0134,-0.0114,-0.0079,-0.0037,-0.0011,0.0034,0.0057,0.0118,0.015,0.0187,0.0218,0.0228,0.025,0.026,0.0246,0.0243,0.0261,0.0263,0.0281,0.0281,0.0281,0.0281,0,-0.0365,-0.0317,-0.0284,-0.022,-0.0204,-0.019,-0.0135,-0.0116,-0.0078,-0.0046,-0.0036,0.0024,0.0063,0.0114,0.017,0.0195,0.0222,0.0237,0.0206,0.0212,0.0209,0.0208,0.0189,0.019,0.0232,0.0231,0.0231,0,-0.0383,-0.0368,-0.0303,-0.0283,-0.0255,-0.0223,-0.0198,-0.0145,-0.012,-0.0064,-0.0051,-0.0008,0.0029,0.009,0.0139,0.0183,0.0199,0.019,0.0206,0.0193,0.02,0.0199,0.0202,0.0185,0.0185,0.0184,0.0184,0,-0.0421,-0.0397,-0.0363,-0.032,-0.0292,-0.0255,-0.0216,-0.0202,-0.014,-0.0115,-0.0074,-0.0045,0.0012,0.0055,0.0105,0.0138,0.0172,0.0178,0.0181,0.0167,0.0148,0.0159,0.0195,0.0178,0.0179,0.0179,0.0179,0.018,-0.0456,-0.0439,-0.039,-0.0353,-0.0318,-0.0283,-0.0261,-0.022,-0.0186,-0.0136,-0.0106,-0.0066,-0.0015,0.0056,0.0087,0.0121,0.0133,0.0137,0.0138,0.0138,0.0134,0.0143,0.013,0.013,0.0131,0.0131,0.0131,0,-0.049,-0.0456,-0.0422,-0.0369,-0.0339,-0.0311,-0.0265,-0.0242,-0.0208,-0.0164,-0.0128,-0.008,-0.0037,0.0016,0.0063,0.0079,0.0096,0.009,0.0089,0.0097,0.0119,0.0113,0.0076,0.0076,0.0076,0.0076,0.0076,0.0076,-0.0505,-0.0476,-0.0446,-0.0398,-0.0362,-0.0324,-0.03,-0.0266,-0.0231,-0.0179,-0.0144,-0.011,-0.0061,-0.001,0.0031,0.0046,0.0062,0.0051,0.007,0.009,0.0095,0.0099,0.0094,0.0053,0.0053,0.0045,0.0045,0.0045]},{"header":{"parameterUnit":"m.s-1","parameterCategory":1,"la1":30.2991,"la2":30.254,"lo1":-89.0895,"lo2":-89.0444,"dy":0.0017,"dx":0.0017,"nx":28,"ny":28,"refTime":"2025-11-22T09:00:00:Z","depth":0,"parameterNumber":3,"parameterNumberName":"V-component_of_WINDS"},"data":[0,0,0,0,0,0,0,0,0,0,0,0,0,0,0,0,0,0,0,0,0,0,0,0,0,0,0,0,0,0,0,0,0,0,0,0,0,0,0,0,0,0,0,0,0,0,0,0,0,0,0,0,0,0,0,0,0,0,-3.6357,-3.6358,0,-3.6387,-3.6387,-3.6388,-3.6409,-3.6409,-3.641,-3.641,-3.6436,-3.6436,-3.6437,0,0,0,0,0,0,0,0,0,0,0,0,0,-3.6316,-3.6317,-3.6357,-3.6358,-3.6358,-3.6387,-3.6387,-3.6388,-3.6409,-3.6409,-3.641,-3.641,-3.6436,-3.6436,-3.6437,0,0,0,0,0,0,0,0,0,0,0,0,0,-3.6339,-3.6317,-3.6357,-3.6372,-3.6374,-3.6387,-3.6387,-3.6388,-3.6409,-3.6409,-3.641,-3.641,-3.6435,-3.6436,-3.6437,-3.6436,0,0,-3.6439,-3.644,0,0,0,0,0,0,0,0,-3.6337,-3.634,-3.637,-3.6371,-3.6373,-3.6395,-3.6383,-3.6404,-3.6409,-3.6396,-3.641,-3.641,-3.6422,-3.6424,-3.6428,-3.6437,-3.6438,-3.6439,-3.644,-3.644,-3.644,0,0,0,0,0,0,0,-3.6336,-3.6339,-3.6369,-3.637,-3.6372,-3.6377,-3.638,-3.6387,-3.6406,-3.6397,-3.6398,-3.6402,-3.6423,-3.6428,-3.6429,-3.6439,-3.6439,-3.644,-3.6441,-3.6441,-3.6449,-3.6449,0,0,0,0,0,0,-3.6332,-3.6337,-3.6368,-3.637,-3.6356,-3.6377,-3.6381,-3.6387,-3.6407,-3.641,-3.6402,-3.6403,-3.6426,-3.6428,-3.643,-3.643,-3.644,-3.6441,-3.6441,-3.6449,-3.6449,-3.6449,0,0,0,0,0,0,-3.6331,-3.6335,-3.6367,-3.6354,-3.6359,-3.6378,-3.6385,-3.6388,-3.6393,-3.641,-3.6414,-3.6403,-3.6426,-3.6429,-3.6435,-3.6432,-3.6441,-3.6442,-3.645,-3.6449,-3.6449,-3.6431,0,0,0,0,0,0,-3.633,-3.6334,-3.6335,-3.6354,-3.6359,-3.6372,-3.6384,-3.6388,-3.6395,-3.6397,-3.6413,-3.6416,-3.6427,-3.6434,-3.6436,-3.6433,-3.6443,-3.645,-3.6449,-3.6449,-3.6432,-3.643,-3.6428,0,0,0,0,0,-3.6328,-3.6327,-3.6335,-3.6338,-3.636,-3.6372,-3.6374,-3.6389,-3.6394,-3.6395,-3.6406,-3.6415,-3.6432,-3.6434,-3.6436,-3.6434,-3.645,-3.6449,-3.6449,-3.6433,-3.643,-3.6428,0,0,0,0,0,0,-3.6305,-3.633,-3.6338,-3.6344,-3.6356,-3.6375,-3.6376,-3.6386,-3.6395,-3.6396,-3.6412,-3.6416,-3.642,-3.6428,-3.6429,-3.6434,-3.6442,-3.6442,-3.6429,-3.6427,-3.6425,-3.6423,-3.6443,0,0,0,0,0,-3.6301,-3.6309,-3.633,-3.6333,-3.6339,-3.6356,-3.6362,-3.6372,-3.6384,-3.6389,-3.6401,-3.6411,-3.6419,-3.6423,-3.6432,-3.6434,-3.6437,-3.6433,-3.6431,-3.643,-3.6429,-3.6431,-3.6429,-3.6447,-3.6447,-3.6447,0,0,-3.6292,-3.6306,-3.631,-3.6329,-3.6339,-3.6346,-3.636,-3.6367,-3.6372,-3.6389,-3.6396,-3.6405,-3.6418,-3.6422,-3.6424,-3.6428,-3.6425,-3.6429,-3.6428,-3.6428,-3.643,-3.6428,-3.6427,-3.6446,-3.6446,-3.6446,0,0,-3.6278,-3.6291,-3.6295,-3.6305,-3.6322,-3.6334,-3.6335,-3.6354,-3.6361,-3.6368,-3.6381,-3.6387,-3.64,-3.6409,-3.6415,-3.6407,-3.6416,-3.641,-3.64,-3.6401,-3.64,-3.6399,-3.6395,-3.6394,-3.6409,-3.6409,-3.6409,0,-3.6264,-3.6277,-3.6295,-3.6302,-3.6309,-3.6327,-3.6331,-3.634,-3.6357,-3.6362,-3.6367,-3.6385,-3.6394,-3.6401,-3.6399,-3.6404,-3.6405,-3.6407,-3.6399,-3.6398,-3.6397,-3.6394,-3.6393,-3.6408,-3.6408,-3.6408,-3.6408,0,-3.6258,-3.6267,-3.6268,-3.6287,-3.6295,-3.6299,-3.6317,-3.6323,-3.6333,-3.6345,-3.6352,-3.6365,-3.6376,-3.6379,-3.6388,-3.6386,-3.6389,-3.6396,-3.6404,-3.6394,-3.6392,-3.6391,-3.6407,-3.6407,-3.6407,-3.6408,0,0,-3.6228,-3.6259,-3.6259,-3.6268,-3.6289,-3.6295,-3.6301,-3.6314,-3.6318,-3.633,-3.6335,-3.6347,-3.6354,-3.6361,-3.6372,-3.6373,-3.6366,-3.6381,-3.6381,-3.6377,-3.6365,-3.6358,-3.6357,-3.6373,-3.6372,-3.6372,-3.6364,0,-3.6218,-3.6231,-3.6248,-3.6255,-3.6263,-3.6282,-3.6287,-3.6299,-3.631,-3.6318,-3.633,-3.6338,-3.6348,-3.6352,-3.6355,-3.6366,-3.6363,-3.6367,-3.6376,-3.6376,-3.6371,-3.6355,-3.6348,-3.6339,-3.6363,-3.6363,-3.6362,0,-3.6206,-3.6219,-3.6227,-3.6248,-3.6252,-3.6257,-3.6271,-3.6278,-3.6293,-3.6301,-3.631,-3.6322,-3.6328,-3.6337,-3.6345,-3.6348,-3.6352,-3.6359,-3.6359,-3.6359,-3.6367,-3.6354,-3.6337,-3.6335,-3.6361,-3.6361,-3.6361,0,-3.6182,-3.6202,-3.621,-3.6217,-3.6242,-3.6245,-3.6255,-3.627,-3.6277,-3.6289,-3.6294,-3.6305,-3.6311,-3.632,-3.6334,-3.6339,-3.6341,-3.6351,-3.6347,-3.6347,-3.6345,-3.6345,-3.6327,-3.635,-3.635,-3.635,-3.635,0,-3.6167,-3.6171,-3.62,-3.6204,-3.621,-3.623,-3.6234,-3.6245,-3.6259,-3.6266,-3.6282,-3.6288,-3.6308,-3.6315,-3.6326,-3.6332,-3.6334,-3.634,-3.6343,-3.6338,-3.6337,-3.634,-3.6341,-3.635,-3.635,-3.635,-3.635,0,-3.6141,-3.6161,-3.617,-3.6194,-3.62,-3.6203,-3.6223,-3.6227,-3.6241,-3.6249,-3.6252,-3.6272,-3.6282,-3.6298,-3.6312,-3.632,-3.6322,-3.6328,-3.6317,-3.6319,-3.6314,-3.6314,-3.6297,-3.6295,-3.632,-3.632,-3.632,0,-3.6129,-3.6133,-3.6159,-3.6165,-3.6176,-3.6185,-3.6194,-3.6214,-3.6221,-3.624,-3.6242,-3.6254,-3.6264,-3.6279,-3.6293,-3.6304,-3.6309,-3.6303,-3.6311,-3.6306,-3.6308,-3.6307,-3.6307,-3.63,-3.63,-3.6299,-3.6299,0,-3.6106,-3.6116,-3.6128,-3.6144,-3.6154,-3.6166,-3.618,-3.6184,-3.6207,-3.6214,-3.6226,-3.6234,-3.625,-3.6261,-3.6274,-3.6283,-3.6294,-3.6297,-3.6297,-3.6291,-3.6284,-3.6287,-3.6311,-3.6297,-3.6297,-3.6297,-3.6297,-3.6297,-3.6086,-3.609,-3.611,-3.6123,-3.6136,-3.6148,-3.6154,-3.617,-3.618,-3.6196,-3.6207,-3.6218,-3.6233,-3.6253,-3.6262,-3.627,-3.6275,-3.6274,-3.6274,-3.6273,-3.6271,-3.6285,-3.6272,-3.6272,-3.6272,-3.6273,-3.6273,0,-3.6062,-3.6077,-3.6089,-3.6108,-3.6119,-3.6132,-3.6148,-3.6155,-3.6165,-3.6179,-3.619,-3.6203,-3.6215,-3.6232,-3.6244,-3.6247,-3.6252,-3.6249,-3.6248,-3.625,-3.6266,-3.6265,-3.6245,-3.6245,-3.6245,-3.6245,-3.6245,-3.6245,-3.6051,-3.606,-3.6073,-3.6089,-3.6103,-3.6115,-3.6123,-3.6134,-3.6146,-3.6161,-3.6172,-3.6184,-3.6199,-3.6213,-3.6224,-3.6229,-3.6232,-3.6227,-3.6233,-3.6247,-3.6249,-3.6252,-3.6251,-3.6228,-3.6228,-3.6217,-3.6216,-3.6216]}]]